[[{"header":{"parameterUnit":"m.s-1","parameterCategory":1,"la1":30.2992,"la2":30.254,"lo1":-89.0895,"lo2":-89.0443,"dy":0.0025,"dx":0.0025,"nx":19,"ny":19,"refTime":"2026-04-04T03:00:00:Z","depth":0,"parameterNumber":2,"parameterNumberName":"U-component_of_WINDS"},"data":[0,0,0,-3.8889,-3.8891,-3.8978,-3.8978,-3.9105,-3.9107,0,0,0,0,0,0,0,0,0,0,0,-3.8871,-3.8872,-3.8889,-3.8891,-3.8978,-3.8978,-3.9105,-3.9107,0,0,0,0,0,0,0,0,0,0,0,-3.8871,-3.8872,-3.8873,-3.8891,-3.8978,-3.8978,-3.9105,-3.9034,0,0,0,0,0,0,0,0,0,0,-3.8947,-3.8938,-3.8872,-3.8873,-3.8892,-3.8978,-3.8978,-3.903,-3.9038,-3.9072,0,-3.9103,0,-3.9107,-3.9116,-3.9116,0,0,0,-3.8885,-3.8931,-3.8947,-3.8874,-3.8893,-3.8978,-3.8937,-3.9035,-3.9044,-3.9083,-3.9105,-3.9109,-3.9109,-3.9117,-3.9118,-3.9329,-3.933,0,0,-3.8881,-3.8891,-3.8941,-3.8954,-3.894,-3.8934,-3.894,-3.904,-3.9065,-3.9105,-3.9112,-3.9111,-3.9118,-3.9119,-3.9328,-3.9329,0,0,0,-3.8871,-3.8888,-3.8902,-3.8949,-3.8963,-3.8937,-3.8943,-3.906,-3.9064,-3.9113,-3.9113,-3.9119,-3.912,-3.9326,-3.9328,-3.9399,0,0,0,-3.8867,-3.8882,-3.89,-3.8907,-3.8962,-3.9013,-3.8962,-3.9057,-3.9068,-3.9112,-3.9119,-3.9122,-3.9325,-3.9327,-3.9394,-3.9431,0,0,0,-3.8863,-3.8882,-3.8897,-3.8908,-3.8945,-3.9011,-3.902,-3.9059,-3.9068,-3.9117,-3.9122,-3.9324,-3.9327,-3.939,-3.9423,-3.9489,0,0,0,-3.8861,-3.896,-3.8898,-3.9009,-3.8945,-3.9054,-3.9019,-3.91,-3.915,-3.9119,-3.9325,-3.9328,-3.9388,-3.9419,-3.9484,-3.9544,-3.9571,0,0,-3.8991,-3.8976,-3.904,-3.8987,-3.911,-3.904,-3.9174,-3.921,-3.9206,-3.9289,-3.9294,-3.9396,-3.9423,-3.9488,-3.9718,-3.9739,0,0,0,-3.9085,-3.9131,-3.9161,-3.9209,-3.9239,-3.9267,-3.9282,-3.9296,-3.9366,-3.925,-3.9438,-3.9453,-3.9491,-3.9519,-3.9537,-3.9569,-3.9342,-3.9342,-3.9342,-3.9283,-3.9272,-3.9377,-3.9377,-3.9424,-3.9439,-3.9476,-3.9498,-3.9473,-3.9518,-3.9542,-3.9683,-3.9716,-3.9729,-3.9762,-3.9574,-3.9574,-3.9575,-3.9575,-3.9472,-3.9535,-3.95,-3.9589,-3.9578,-3.9653,-3.9673,-3.9653,-3.9722,-3.9664,-3.9696,-3.9631,-3.9753,-3.9781,-3.958,-3.9579,-3.9578,-3.9578,-3.9578,-3.9599,-3.9627,-3.9642,-3.9711,-3.9765,-3.9763,-3.9831,-3.9818,-3.9808,-3.984,-3.9863,-3.9862,-3.9858,-3.9852,-3.9853,-3.9853,-3.9854,-3.9854,-3.9854,-3.9725,-3.9739,-3.9797,-3.9838,-3.9868,-3.9905,-3.9923,-3.9952,-3.9981,-3.9967,-3.9967,-3.9938,-3.9767,-3.9723,-3.9862,-3.9861,-3.986,-3.9859,-3.9858,-3.9917,-3.9872,-3.9961,-3.9991,-4.0038,-4.0094,-4.0078,-4.0139,-4.0161,-4.0196,-4.0161,-4.0037,-4.002,-4.0006,-3.9969,-4.0163,-4.0163,-4.0163,-4.0163,-4.0023,-4.0014,-4.0103,-4.0151,-4.0197,-4.0192,-4.0295,-4.0311,-4.032,-4.0334,-4.0305,-4.0256,-4.0242,-4.0234,-4.0214,-4.018,-4.0423,-4.0424,-4.0424,-4.0141,-4.0136,-4.0224,-4.0231,-4.0268,-4.0301,-4.0397,-4.0455,-4.0457,-4.0434,-4.0344,-4.0333,-4.0255,-4.023,-4.0203,-4.0173,-4.011,0,0]},{"header":{"parameterUnit":"m.s-1","parameterCategory":1,"la1":30.2992,"la2":30.254,"lo1":-89.0895,"lo2":-89.0443,"dy":0.0025,"dx":0.0025,"nx":19,"ny":19,"refTime":"2026-04-04T03:00:00:Z","depth":0,"parameterNumber":3,"parameterNumberName":"V-component_of_WINDS"},"data":[0,0,0,2.5307,2.5309,2.5396,2.5396,2.5494,2.5495,0,0,0,0,0,0,0,0,0,0,0,2.5274,2.5274,2.5307,2.5309,2.5396,2.5396,2.5494,2.5495,0,0,0,0,0,0,0,0,0,0,0,2.5274,2.5274,2.5275,2.5309,2.5396,2.5396,2.5494,2.5433,0,0,0,0,0,0,0,0,0,0,2.535,2.5313,2.5274,2.5275,2.531,2.5396,2.5396,2.543,2.5436,2.5449,0,2.546,0,2.5479,2.5501,2.5501,0,0,0,2.5314,2.5308,2.5338,2.5275,2.531,2.5396,2.5358,2.5434,2.5441,2.5458,2.5462,2.5466,2.5481,2.5501,2.5502,2.5565,2.5565,0,0,2.5309,2.5285,2.5333,2.5342,2.5329,2.5355,2.5361,2.5438,2.544,2.5462,2.5468,2.5482,2.5502,2.5503,2.5565,2.5565,0,0,0,2.5292,2.5282,2.531,2.5338,2.5355,2.5357,2.5364,2.5437,2.5448,2.5469,2.5484,2.5502,2.5503,2.5565,2.5565,2.5548,0,0,0,2.5289,2.5272,2.5308,2.5294,2.5353,2.5397,2.536,2.5443,2.5452,2.5483,2.5502,2.5504,2.5565,2.5565,2.5548,2.5543,0,0,0,2.5271,2.527,2.528,2.5293,2.533,2.5396,2.5412,2.5445,2.5461,2.5501,2.5505,2.5565,2.5565,2.5549,2.5544,2.5555,0,0,0,2.5244,2.5261,2.528,2.5305,2.5329,2.5385,2.5412,2.5455,2.5487,2.5503,2.5565,2.5565,2.5549,2.5544,2.5555,2.556,2.556,0,0,2.5253,2.5261,2.5278,2.5297,2.5345,2.5374,2.5418,2.5469,2.5493,2.5539,2.5541,2.5548,2.5544,2.5555,2.5566,2.5566,0,0,0,2.5273,2.5285,2.5303,2.5334,2.5375,2.541,2.5457,2.5476,2.5517,2.5513,2.5555,2.5553,2.5561,2.5564,2.5564,2.5572,2.5566,2.5566,2.5566,2.5251,2.5284,2.5315,2.5358,2.5388,2.5438,2.5465,2.5499,2.552,2.553,2.5544,2.5548,2.5551,2.5551,2.5559,2.5549,2.5549,2.5549,2.5549,2.5268,2.5291,2.5323,2.5364,2.5398,2.5432,2.5481,2.5496,2.5532,2.5539,2.5547,2.5552,2.555,2.5559,2.5548,2.5548,2.5548,2.5549,2.5549,2.5258,2.5275,2.5299,2.535,2.5385,2.5428,2.5464,2.5492,2.5519,2.5527,2.5546,2.5547,2.5551,2.5535,2.5535,2.5535,2.5535,2.5535,2.5535,2.5237,2.5266,2.5293,2.534,2.5366,2.5403,2.5455,2.548,2.5515,2.5534,2.5534,2.5555,2.5544,2.5541,2.5535,2.5535,2.5535,2.5535,2.5535,2.5242,2.5247,2.5288,2.5314,2.5373,2.5407,2.5445,2.5495,2.552,2.5536,2.5557,2.5544,2.5554,2.5554,2.5552,2.5549,2.5549,2.5549,2.5549,2.5234,2.5243,2.5294,2.5334,2.5376,2.5415,2.5461,2.5502,2.5545,2.5563,2.5567,2.5567,2.5566,2.5577,2.5576,2.5575,2.5578,2.5578,2.5578,2.524,2.5255,2.5289,2.5333,2.5383,2.5424,2.5469,2.5513,2.5561,2.558,2.5577,2.5576,2.5576,2.5573,2.5591,2.559,2.5588,0,0]}]]